STARLINK-34694 (66189 NORAD) Tracking and Keplerian Element Data

This shows tracking and keplerian element data for the satellite.

Feedback or suggestion? Click here.




ElementValue
Catalog66189
NameSTARLINK-34694
Epoch Orbit845
Epoch Day354.00618705
Epoch Year2025
RAAN255.3905
Inclination53.1594
Eccentricity0.0001799
Argument of Perigee76.4083
Mean Anonmoly283.7118
Mean Motion15.30178555
Decay Rate0.00019722
L11 66189U 25243N 25354.00618705 .00019722 00000+0 67668-3 0 9998
L22 66189 53.1594 255.3905 0001799 76.4083 283.7118 15.30178555 8459



Live tracking and technical data element details for STARLINK-34694 (NORAD 66189). STARLINK-34694 can be tracked NOW for your location showing map with azimuth and elevation plus other details from your city location.







IsCatalogInMostPopularTable: catalog: 66189, numindb: 3
Update: records affected: 1



GetName: 66189 STARLINK-34694

Hit Count: updated at: Sun, 08 Feb 2026 08:25:33 GMT